Location: Twentynine Palms Airport
(34.1316°N, 115.9458°W)
Time: 02:02:20
(UTC-07:00)

Oscar 19 - Visible Passes

Search period start: 30 April 2016 00:00
Search period end: 10 May 2016 00:00
Orbit: 774 x 790 km, 98.5° (Epoch: 29 April)

Date Brightness Start Highest point End Pass type
(mag) Time Alt. Az. Time Alt. Az. Time Alt. Az.
30 Apr 12.1 02:27:50 10° N 02:30:40 33° N 02:30:40 33° N visible
01 May 12.5 01:56:07 10° NNE 01:58:34 28° NNE 01:58:34 28° NNE visible
01 May 12.7 03:37:13 10° NNW 03:39:08 14° NW 03:39:08 14° NW visible
02 May 13.0 01:24:57 10° NE 01:26:29 17° NE 01:26:29 17° NE visible
02 May 12.2 03:04:07 10° N 03:07:03 25° NW 03:07:03 25° NW visible
03 May 11.9 02:31:52 10° N 02:34:58 35° N 02:34:58 35° N visible
04 May 12.2 02:00:05 10° NNE 02:02:52 32° NNE 02:02:52 32° NNE visible
04 May 12.7 03:41:32 10° NW 03:43:26 13° WNW 03:43:26 13° WNW visible
05 May 12.9 01:28:51 10° NE 01:30:47 20° NE 01:30:47 20° NE visible
05 May 12.2 03:08:14 10° NNW 03:11:20 25° NW 03:11:20 25° NW visible
06 May 13.4 00:58:40 10° ENE 00:58:41 10° ENE 00:58:41 10° ENE visible
06 May 11.8 02:35:54 10° N 02:39:15 38° NNW 02:39:15 38° NNW visible
07 May 12.0 02:04:04 10° NNE 02:07:09 36° NNE 02:07:09 36° NNE visible
07 May 12.8 03:45:55 10° NW 03:47:43 12° WNW 03:47:43 12° WNW visible
08 May 12.7 01:32:44 10° NE 01:35:03 23° NE 01:35:03 23° NE visible
08 May 12.2 03:12:22 10° NNW 03:15:37 24° NW 03:15:37 24° NW visible
09 May 13.3 01:02:21 10° ENE 01:02:57 12° ENE 01:02:57 12° ENE visible
09 May 11.6 02:39:57 10° N 02:43:31 39° NNW 02:43:31 39° NNW visible
